Location: Newport
(44.6370°N, 124.0520°W)
Time: 16:14:14
(UTC-07:00)

Tiangong 2 - Pass Details

Date: 11 October 2017
Orbit: 388 x 391 km, 42.8° (Epoch: 21 October)

Event Time Altitude Azimuth Distance (km) Brightness Sun altitude
Exits shadow 06:15:50 22° 232° (SW) 924 2.5 -13.4°
Maximum altitude 06:17:37 47° 167° (SSE) 527 1.8 -13.1°
Drops below altitude 10° 06:20:43 10° 92° (E) 1,423 5.4 -12.6°
Sets 06:22:50 0° 87° (E) 2,280 7.2 -12.2°
